Location: Newark
(6.1731°S, 35.7419°E)
Time: 10:11:12
(UTC+00:00)

Vanguard 2 Rocket - All Passes

Search period start: 19 February 2020 00:00
Search period end: 29 February 2020 00:00
Orbit: 554 x 3327 km, 32.9° (Epoch: 19 February)

Date Brightness Start Highest point End Pass type
(mag) Time Alt. Az. Time Alt. Az. Time Alt. Az.
19 Feb - 03:02:34 10° NW 03:06:22 51° NE 03:11:06 10° ESE visible
19 Feb - 05:16:06 10° WSW 05:20:01 22° SSW 05:25:28 10° SSE daylight
19 Feb - 07:33:02 10° SSW 07:37:02 14° S 07:41:59 10° SSE daylight
19 Feb - 09:47:15 10° SSW 09:56:33 23° SSE 10:09:14 10° ESE daylight
19 Feb - 12:00:42 10° SW 12:16:16 51° SSE 12:35:44 10° ENE daylight
19 Feb - 14:16:12 10° WSW 14:35:37 80° NW 14:54:31 10° NE daylight
19 Feb - 16:37:17 10° W 16:54:13 33° NW 17:07:54 10° NNE visible
20 Feb - 02:04:07 10° NNW 02:07:15 22° NE 02:10:29 10° E visible
20 Feb - 04:16:17 10° W 04:20:05 32° SSW 04:25:17 10° SE daylight
20 Feb - 06:33:06 10° SSW 06:35:53 12° S 06:39:11 10° SSE daylight
20 Feb - 08:48:03 10° SSW 08:54:31 17° SSE 09:02:59 10° SE daylight
20 Feb - 11:00:51 10° SW 11:13:55 39° SSE 11:31:41 10° E daylight
20 Feb - 13:15:04 10° SW 13:33:04 83° SE 13:53:11 10° ENE daylight
20 Feb - 15:33:22 10° WSW 15:52:04 46° NW 16:08:25 10° NNE daylight
20 Feb - 18:02:31 10° WNW 18:11:02 15° NNW 18:18:17 10° N visible
21 Feb - 01:07:12 10° NNE 01:07:48 10° NNE 01:08:24 10° NE visible
21 Feb - 03:16:47 10° WNW 03:20:38 59° SSW 03:25:25 10° SE visible
21 Feb - 05:32:41 10° SW 05:35:12 13° SSW 05:38:11 10° SSE daylight
21 Feb - 07:49:19 10° SSW 07:52:49 12° S 07:56:59 10° SSE daylight
21 Feb - 10:01:27 10° SSW 10:11:50 28° SSE 10:26:29 10° E daylight
21 Feb - 12:14:37 10° SW 12:30:37 66° SE 12:50:54 10° ENE daylight
21 Feb - 14:30:50 10° WSW 14:49:40 61° NW 15:08:13 10° NE daylight
21 Feb - 16:54:39 10° W 17:08:46 23° NW 17:20:38 10° NNE visible
22 Feb - 02:17:31 10° NW 02:21:28 59° NE 02:25:36 10° ESE visible
22 Feb - 04:32:08 10° WSW 04:34:57 16° SSW 04:38:22 10° SSE daylight
22 Feb - 09:02:29 10° SSW 09:10:02 20° SSE 09:20:23 10° ESE daylight
22 Feb - 11:14:44 10° SW 11:28:26 50° SSE 11:47:36 10° ENE daylight
22 Feb - 13:29:20 10° WSW 13:47:09 78° NW 14:07:15 10° NE daylight
22 Feb - 15:49:27 10° W 16:06:24 34° NW 16:21:30 10° NNE visible
23 Feb - 01:18:33 10° NNW 01:22:16 26° NNE 01:25:38 10° E visible
23 Feb - 03:31:51 10° W 03:35:08 24° SSW 03:39:02 10° SSE daylight
23 Feb - 08:04:11 10° S 08:08:30 13° SSE 08:13:49 10° SE daylight
23 Feb - 10:15:20 10° SSW 10:26:37 37° SSE 10:43:11 10° E daylight
23 Feb - 12:28:39 10° SW 12:44:44 84° SE 13:05:28 10° ENE daylight
23 Feb - 14:46:03 10° WSW 15:03:53 46° NW 15:21:33 10° NNE daylight
23 Feb - 17:13:54 10° WNW 17:23:59 16° NNW 17:32:49 10° N visible
24 Feb - 00:19:58 10° N 00:22:42 14° NNE 00:25:05 10° ENE night (unlit)
24 Feb - 02:31:53 10° WNW 02:35:46 48° SSW 02:39:49 10° SE visible
24 Feb - 09:16:25 10° SSW 09:25:07 26° SSE 09:37:46 10° E daylight
24 Feb - 11:28:38 10° SW 11:42:38 66° SE 12:02:46 10° ENE daylight
24 Feb - 13:44:00 10° WSW 14:01:19 59° NW 14:20:53 10° NE daylight
24 Feb - 16:06:47 10° WNW 16:21:13 24° NNW 16:34:19 10° NNE visible
25 Feb - 01:32:08 10° NW 01:36:38 72° NE 01:40:31 10° ESE visible
25 Feb - 03:48:27 10° SW 03:49:54 11° SSW 03:51:25 10° S daylight
25 Feb - 08:18:05 10° SSW 08:23:52 17° SSE 08:31:35 10° ESE daylight
25 Feb - 10:29:09 10° SW 10:40:59 49° SE 10:59:06 10° ENE daylight
25 Feb - 12:42:58 10° WSW 12:58:52 76° NW 13:19:28 10° NE daylight
25 Feb - 15:02:10 10° W 15:18:27 33° NNW 15:34:38 10° NNE daylight
25 Feb - 17:36:41 10° NW 17:39:59 11° NNW 17:43:07 10° NNW visible
26 Feb - 00:32:32 10° NNW 00:37:20 34° NNE 00:41:02 10° E visible
26 Feb - 02:47:11 10° W 02:50:11 20° SSW 02:53:15 10° SSE visible
26 Feb - 09:30:09 10° SSW 09:39:44 35° SE 09:54:31 10° E daylight
26 Feb - 11:42:41 10° SW 11:56:44 86° SE 12:17:16 10° NE daylight
26 Feb - 13:59:18 10° W 14:15:44 44° NW 14:34:11 10° NNE daylight
26 Feb - 16:25:49 10° WNW 16:36:44 17° NNW 16:46:46 10° N visible
26 Feb - 23:32:59 10° NNW 23:37:39 21° NNE 23:41:09 10° ENE night (unlit)
27 Feb - 01:46:37 10° WNW 01:50:54 42° SW 01:54:37 10° SE visible
27 Feb - 08:31:40 10° SSW 08:38:47 23° SSE 08:49:06 10° ESE daylight
27 Feb - 10:43:02 10° SW 10:55:05 67° SE 11:14:15 10° ENE daylight
27 Feb - 12:57:41 10° WSW 13:13:09 57° NW 13:33:02 10° NE daylight
27 Feb - 15:19:28 10° WNW 15:33:34 24° NNW 15:47:28 10° NNE daylight
27 Feb - 22:33:30 10° N 22:37:29 15° NNE 22:40:39 10° NE night (unlit)
28 Feb - 00:46:17 10° NW 00:51:44 85° NE 00:55:45 10° ESE visible
28 Feb - 07:34:08 10° S 07:38:01 13° SSE 07:42:49 10° SE daylight
28 Feb - 09:43:54 10° SW 09:53:57 48° SE 10:10:26 10° ENE daylight
28 Feb - 11:57:03 10° WSW 12:10:56 72° NW 12:31:12 10° NE daylight
28 Feb - 14:15:27 10° W 14:30:33 32° NNW 14:47:12 10° NNE daylight
28 Feb - 16:47:14 10° NW 16:53:02 12° NNW 16:58:32 10° N visible
28 Feb - 21:34:18 10° N 21:36:50 11° NNE 21:39:04 10° NE night (unlit)
28 Feb - 23:46:00 10° NW 23:52:21 44° NNE 23:56:35 10° ESE night (unlit)
